SCP
0 0 0 0 0 0 0 0 0 0 0 0 0 0 0 0 0 0 0 0 0 0 0 0 0 0 0 0 0 1 1 2 2 2 1 1 0 0 0 0 0 0 0 0
0 0 0 0 0 0 0 0 0 0 0 0 0 0 0 0 0 0 0 0 0 0 0 0 0 0 0 0 0 1 2 2 2 2 1 0 0 0 0 0 0 0 0 0
0 0 0 0 0 0 0 0 0 0 0 0 0 0 0 0 0 0 0 0 0 0 0 0 0 0 0 0 1 2 2 2 1 1 1 0 0 0 0 0 0 0 0 0
0 0 0 0 0 0 0 0 0 0 0 0 0 0 0 0 -0 0 0 0 0 0 0 0 0 0 0 0 1 2 2 2 1 1 0 0 0 0 0 0 0 0 0 0
0 0 0 0 0 0 0 0 0 0 0 0 0 0 0 0 0 0 0 0 0 0 0 0 0 0 0 0 1 2 2 1 0 0 0 0 0 0 0 0 0 0 0 0
0 0 0 0 0 0 0 0 0 0 0 0 0 0 0 0 0 0 -0 0 0 0 0 0 0 0 0 0 1 2 1 1 0 0 0 0 0 0 0 0 0 0 0 0
0 0 0 0 0 0 0 0 0 0 0 0 0 0 0 0 0 0 0 0 0 0 0 0 0 0 0 0 1 1 1 0 0 0 0 0 0 0 0 0 0 0 0 0
0 0 0 0 0 0 0 0 0 0 0 0 0 0 0 0 0 0 0 0 0 0 0 0 0 0 0 0 0 1 0 0 0 0 0 0 0 0 0 0 0 0 0 0
0 0 0 0 0 0 0 0 0 0 0 0 0 0 0 0 0 0 0 0 0 0 0 0 0 0 0 0 0 0 0 0 0 0 0 0 0 0 0 0 0 0 0 0
0 0 0 0 0 0 0 0 0 0 0 0 0 0 0 0 0 0 0 0 0 0 0 0 0 0 0 0 0 0 0 0 0 0 0 0 0 0 0 0 0 0 0 0
0 0 0 0 0 0 0 0 0 0 0 0 0 0 0 0 0 0 0 0 0 0 0 0 0 0 0 0 0 0 0 0 0 0 0 0 0 0 0 0 0 0 0 0
0 0 0 0 0 0 0 0 0 0 0 0 0 0 0 0 0 0 0 0 0 0 0 0 0 0 0 0 0 0 0 0 0 0 0 0 0 0 0 0 0 0 0 0
0 0 0 0 0 0 0 0 0 0 0 0 0 0 0 0 0 0 0 0 0 0 0 0 0 0 0 0 0 0 0 0 0 0 0 0 0 0 0 0 0 0 0 0
0 0 0 0 0 0 0 0 0 0 0 0 0 0 0 0 0 0 0 0 0 0 0 0 0 0 0 0 0 0 0 0 0 0 0 0 0 0 0 0 0 0 0 0
0 0 0 0 0 0 0 0 0 0 0 0 0 0 0 0 0 0 0 0 0 0 0 0 0 0 0 0 0 0 0 0 0 0 0 0 0 0 0 0 0 0 0 0
0 0 0 0 0 0 0 0 0 0 0 0 0 0 0 0 0 0 0 0 0 0 0 0 0 0 0 0 0 0 0 0 0 0 0 0 0 0 0 0 0 0 0 0
0 0 0 0 0 0 0 0 0 0 0 0 0 0 0 0 0 0 0 0 0 0 0 0 0 0 0 0 0 0 0 0 0 0 0 0 0 0 0 0 0 0 0 0
0 0 0 0 0 0 0 0 0 0 0 0 0 0 0 0 0 0 0 0 0 0 0 0 0 0 0 0 0 0 0 0 0 0 0 0 0 0 0 0 0 0 0 0
0 0 0 0 0 0 0 0 0 0 0 0 0 0 0 0 0 0 0 0 0 0 0 0 0 0 0 0 0 0 0 0 0 0 0 0 0 0 0 0 0 0 0 0
0 0 0 0 0 0 0 0 0 0 0 0 0 0 0 0 0 0 0 0 0 0 0 0 0 0 0 0 0 0 0 0 0 0 0 0 0 0 0 0 0 0 0 0
0 0 0 0 0 0 0 0 0 0 0 0 0 0 0 0 0 0 0 0 0 0 0 0 0 0 0 0 0 0 0 0 0 0 0 0 0 0 0 0 0 0 0 0
0 0 0 0 0 0 0 0 0 0 0 0 0 0 0 0 0 0 0 0 0 0 0 0 0 0 0 0 0 0 0 0 0 0 0 0 0 0 0 0 0 0 0 0
0 0 0 0 0 0 0 0 0 0 0 0 0 0 0 0 0 0 0 0 0 0 0 0 0 0 0 0 0 0 0 0 0 0 0 0 0 0 0 0 0 0 0 0
0 0 0 0 0 0 0 0 0 0 0 0 0 0 0 0 0 0 0 0 0 0 0 0 0 0 0 0 0 0 0 0 0 0 0 0 0 0 0 0 0 0 0 0
0 0 0 0 0 0 0 0 0 0 0 0 0 0 0 0 0 0 0 0 0 0 0 0 0 0 0 0 0 0 0 0 0 0 0 0 0 0 0 0 0 0 0 0
0 0 0 0 0 0 0 0 0 0 0 0 0 0 0 0 0 0 0 0 0 0 0 0 0 0 0 0 0 0 0 0 0 0 0 0 0 0 0 0 0 0 0 0
Wind_Speed
7 7 10 12 14 9 5 9 11 10 8 12 19 24 21 19 21 21 21 21 21 20 17 15 14 12 11 10 9 9 12 14 13 11 11 10 8 8 7 7 9 10 10 10
6 11 12 8 9 12 13 15 15 13 10 12 19 28 23 22 25 24 24 24 23 23 21 20 18 14 12 11 10 10 13 15 16 12 11 8 10 8 8 8 8 8 8 10
11 1 5 11 12 13 15 16 14 13 13 14 18 24 19 14 17 20 23 24 26 25 24 23 22 20 14 12 11 11 14 16 16 14 9 10 9 8 7 8 7 6 7 9
10 7 5 8 12 13 13 10 12 12 10 8 6 14 15 9 10 12 16 18 20 21 22 22 22 22 18 14 12 13 15 17 17 16 14 17 13 13 11 9 8 8 8 10
8 6 9 12 12 13 8 4 8 10 11 12 13 13 18 11 14 13 15 17 17 16 17 18 20 20 18 15 13 14 16 17 17 17 17 16 13 12 12 11 12 10 9 10
7 5 7 8 8 12 7 4 7 8 8 12 17 16 18 15 14 13 13 14 13 12 12 14 15 16 15 13 14 15 17 17 18 18 17 16 17 18 17 15 13 10 8 8
7 10 8 6 7 8 10 5 4 6 9 13 11 12 17 16 13 15 14 13 13 11 11 11 12 13 14 16 18 18 19 19 19 18 17 16 17 19 21 18 14 12 9 8
5 6 10 11 12 8 13 11 10 8 9 10 9 15 16 15 13 16 17 15 14 14 13 12 12 11 14 17 19 20 20 19 19 18 16 15 15 12 13 14 13 11 9 9
7 5 3 9 10 9 7 12 11 10 11 12 13 16 18 13 14 18 17 14 13 13 13 12 11 10 13 17 19 20 20 19 18 17 16 15 13 13 14 14 12 10 9 9
7 6 5 5 8 12 11 5 6 9 9 14 16 21 16 13 13 13 9 8 11 14 14 12 8 10 12 15 17 18 18 18 17 17 15 12 12 14 15 14 13 12 12 11
8 6 4 7 13 15 14 10 10 10 9 10 13 13 5 5 5 4 6 9 13 15 16 12 7 9 11 14 16 17 17 17 16 16 15 14 13 14 14 13 13 12 11 11
10 6 7 12 13 13 17 17 16 12 12 10 11 15 5 7 6 4 9 12 14 15 14 10 4 9 13 15 17 16 16 16 15 15 16 15 15 15 14 14 13 12 11 10
10 5 6 6 6 8 12 19 21 16 11 11 14 16 3 6 7 8 13 15 14 15 12 5 5 10 13 15 15 15 15 15 14 15 17 17 16 15 15 14 13 11 11 9
9 8 10 12 11 7 11 15 18 18 12 15 22 25 19 15 18 18 17 15 14 13 8 3 7 10 12 13 14 15 14 14 13 15 16 16 15 15 14 13 12 11 10 8
8 7 10 18 22 21 23 23 18 21 22 20 22 24 22 17 16 14 13 13 14 13 5 5 8 10 12 13 13 14 14 13 13 15 16 15 15 14 14 13 12 10 9 7
8 6 7 16 21 20 23 22 20 19 21 25 26 27 19 14 11 12 12 12 13 11 5 7 10 12 13 13 14 14 15 13 14 16 16 15 15 14 13 12 11 10 8 6
7 4 5 10 12 13 11 11 12 12 15 16 21 22 16 13 14 13 12 12 12 7 6 10 11 12 13 13 15 15 15 15 15 16 15 15 14 14 12 11 10 8 7 5
7 4 4 8 11 7 5 5 8 11 15 18 18 16 12 11 11 10 10 10 7 3 9 11 12 13 13 15 15 16 15 15 15 15 15 14 13 13 11 10 9 7 5 3
12 8 5 5 8 10 6 3 4 5 7 9 17 19 14 8 10 8 5 6 2 6 10 11 12 14 15 15 15 16 16 15 15 15 14 13 12 12 10 9 8 5 3 2
8 10 6 5 7 6 5 3 2 6 4 6 8 9 9 7 5 4 8 7 7 11 12 13 14 15 15 15 15 17 16 15 14 13 13 12 11 10 9 8 6 4 2 1
5 6 7 7 7 8 4 3 4 4 9 11 9 2 7 7 1 4 7 9 10 12 13 14 14 14 14 14 15 16 15 14 13 13 12 11 10 9 9 7 5 3 1 1
8 6 7 6 6 6 0 2 3 5 6 7 5 2 8 9 8 7 9 10 11 12 13 14 14 14 13 13 15 16 15 14 13 13 12 11 10 8 6 6 4 3 2 3
7 7 4 6 6 5 3 6 5 4 6 4 2 3 11 11 8 9 10 10 11 12 12 13 16 16 13 12 14 17 14 13 13 12 11 10 9 7 5 5 4 2 2 3
4 5 5 7 9 8 8 6 2 3 3 1 3 7 9 12 13 12 11 11 12 12 13 13 15 16 14 12 13 15 13 12 12 12 10 8 7 6 5 4 3 2 3 4
4 5 5 7 8 7 4 2 4 5 5 7 9 9 12 15 14 13 13 13 12 12 12 12 13 15 14 13 13 12 11 11 12 10 8 7 6 5 4 3 3 3 3 5
7 8 6 4 3 3 3 4 6 7 7 8 12 14 13 13 15 15 13 12 13 13 12 13 15 15 14 13 12 10 9 10 11 9 7 5 4 4 3 2 1 1 2 6
Wind_Direction
176 201 214 215 219 253 266 251 253 254 266 284 272 273 270 269 265 263 262 262 260 256 252 255 257 252 250 245 232 210 186 176 174 172 166 155 151 143 127 119 125 127 128 128
180 230 234 231 228 241 246 254 262 272 266 272 281 280 276 267 262 260 260 258 256 257 254 249 250 246 242 238 224 200 181 177 177 180 175 162 140 127 115 112 108 112 125 127
208 186 218 212 221 231 240 249 263 273 293 275 285 283 269 256 253 254 254 255 255 252 250 245 241 240 234 231 213 193 179 176 178 174 154 138 125 122 118 116 108 115 130 126
232 228 210 209 223 229 253 248 255 265 269 273 272 290 289 285 270 262 258 253 252 251 247 243 239 236 229 222 205 191 179 175 175 166 163 164 159 153 150 138 129 131 130 124
212 209 212 222 226 220 240 239 245 255 260 268 251 260 282 277 268 265 257 254 256 256 249 242 239 237 229 214 192 182 178 175 171 169 170 170 157 141 133 130 132 132 129 125
238 204 221 226 223 219 221 229 259 253 254 256 250 245 273 275 270 268 261 259 264 267 257 247 243 237 228 200 181 177 177 173 170 170 170 166 152 143 142 143 143 141 136 132
231 221 216 204 206 202 204 212 244 227 222 245 252 239 257 275 261 252 258 272 287 289 276 258 247 233 211 186 179 178 176 171 172 171 168 158 154 152 152 152 153 149 145 142
220 236 207 206 216 209 204 209 228 254 253 265 248 243 256 268 258 257 264 275 290 295 287 268 255 231 202 187 180 178 175 171 170 168 162 150 152 152 150 154 151 149 142 137
209 249 200 208 211 210 201 217 239 263 269 268 254 254 261 259 255 256 264 282 298 309 309 283 255 222 196 184 180 177 172 167 164 159 149 144 150 149 146 146 142 132 129 133
207 243 222 192 203 225 231 227 203 219 251 254 257 260 262 266 259 262 272 298 317 322 324 308 259 212 190 178 173 169 166 160 152 146 140 139 143 145 143 140 136 133 134 134
207 224 223 192 210 211 200 210 219 234 240 256 268 265 273 259 272 294 311 323 330 329 325 315 261 198 174 165 162 158 155 148 143 140 134 134 136 140 136 130 130 131 133 137
201 219 248 237 234 229 222 223 220 235 236 236 259 268 258 261 260 291 319 325 329 331 327 315 234 169 162 160 154 147 144 143 141 138 134 136 136 134 128 125 127 130 131 134
170 201 267 259 224 220 239 238 234 237 250 245 251 265 252 230 245 285 312 316 322 330 328 312 177 163 160 154 144 137 135 135 137 136 135 134 132 129 126 126 127 127 128 131
175 207 227 262 282 270 248 247 234 230 239 248 248 260 264 266 279 294 305 311 317 327 317 247 174 158 150 143 135 128 127 130 133 133 129 127 126 125 124 124 124 126 129 133
200 243 242 258 269 270 264 265 252 234 235 247 260 266 273 282 285 290 299 307 309 316 286 199 167 149 140 132 127 122 123 127 131 124 120 120 119 119 121 121 122 122 124 128
207 258 274 273 270 268 270 269 260 246 241 246 259 269 280 290 285 289 298 303 302 304 237 174 155 145 138 132 126 121 122 125 122 118 117 118 119 119 120 121 121 121 126 132
197 234 275 284 302 295 272 270 253 235 230 237 250 259 272 279 284 291 296 300 300 288 182 158 150 141 132 128 125 122 122 120 116 115 117 119 119 119 121 122 123 127 133 139
217 226 269 291 308 295 314 277 265 257 252 241 247 259 269 281 291 293 299 302 299 184 151 145 135 124 120 118 115 116 115 115 115 116 117 118 120 121 124 123 123 126 135 143
223 232 263 280 294 284 301 314 281 272 274 259 252 251 253 264 287 292 345 327 293 137 132 127 122 119 116 115 117 114 112 114 114 115 117 120 123 124 125 122 122 126 137 130
216 217 237 269 288 292 333 335 277 259 308 8 315 258 232 217 269 345 26 27 85 107 114 118 118 116 114 117 119 114 114 113 113 115 117 119 121 121 119 117 117 115 113 54
171 201 228 249 265 276 296 291 263 322 347 344 341 319 177 187 204 57 61 66 83 99 111 117 115 110 113 118 115 110 109 109 113 114 112 109 108 106 108 110 112 117 97 344
199 205 213 219 241 272 213 251 276 321 324 322 337 71 121 111 98 90 85 87 95 103 108 111 107 104 108 113 112 108 108 113 113 110 107 105 103 101 110 117 117 100 32 338
219 222 233 227 256 313 277 255 290 317 300 307 310 117 126 120 115 106 98 97 99 102 105 107 108 105 104 107 112 112 115 118 115 111 108 107 107 109 112 106 96 68 16 349
231 218 245 264 267 272 277 281 327 351 322 328 140 130 125 121 123 116 109 104 102 103 107 111 109 105 102 103 106 112 119 121 117 115 116 120 119 112 101 88 64 32 7 347
247 201 229 257 278 293 303 18 59 71 81 101 107 110 117 120 120 118 113 110 109 108 107 106 106 106 108 109 109 113 120 122 120 120 120 116 107 104 95 85 56 13 12 347
216 211 222 259 317 297 1 72 102 101 100 112 115 112 113 120 122 118 112 111 110 108 107 105 105 108 112 112 110 114 123 128 126 121 117 110 109 102 89 71 68 102 335 339